{"data":{"norad_id":55374,"epoch":"2026-09-20T10:28:35.168160Z","epoch_age_seconds":102101,"freshness":"FRESH","line1":"1 55374U 23013AV  26263.43651815 -.00000239  00000+0  84353-6 0  9998","line2":"2 55374  43.0053 302.0092 0001785 291.3740  68.6921 15.27575434201248","mean_motion":15.27575434,"eccentricity":0.0001785,"inclination_deg":43.0053,"raan_deg":302.0092,"arg_perigee_deg":291.374,"mean_anomaly_deg":68.6921,"bstar":8.4353e-7,"rev_number":20124,"period_min":94.267030481717,"perigee_km":481.83804416167,"apogee_km":484.28749247896,"semimajor_km":6861.1997683203,"source":"CELESTRAK","updated_at":"2026-09-21T09:00:33.210069Z"}}